• In Deutschland
  • Länderverzeichnis
  • Für 7 Tage
  • Wassertemperatur
  • Satellitenkarten
  • Wetterkarte
  • Widgets
  • user-avatar
    Anmelden

    Stündliche Wetter Sölden

    Heute, 22 Februar, Donnerstag

    Zeit Temperatur Niederschläge Wind Luftdruck Luftfeuchtigkeit
    00:00 -16°C° 0 mm 2 m/S 571 mmHg 84%
    01:00 -16°C° 0 mm 2 m/S 570 mmHg 83%
    02:00 -16°C° 0 mm 2 m/S 570 mmHg 83%
    03:00 -16°C° 0 mm 2 m/S 570 mmHg 82%
    04:00 -15°C° 0 mm 1 m/S 569 mmHg 82%
    05:00 -15°C° 0 mm 1 m/S 569 mmHg 82%
    06:00 -15°C° 0 mm 1 m/S 569 mmHg 81%
    07:00 -14°C° 0 mm 1 m/S 569 mmHg 81%
    08:00 -13°C° 0,1 mm 1 m/S 570 mmHg 79%
    09:00 -11°C° 0,1 mm 1 m/S 571 mmHg 77%
    10:00 -9°C° 0,1 mm 1 m/S 572 mmHg 75%
    11:00 -8°C° 0,1 mm 1 m/S 572 mmHg 75%
    12:00 -7°C° 0,1 mm 1 m/S 573 mmHg 74%
    13:00 -6°C° 0,1 mm 1 m/S 573 mmHg 74%
    14:00 -6°C° 0,2 mm 1 m/S 573 mmHg 76%
    15:00 -6°C° 0,2 mm 1 m/S 573 mmHg 78%
    16:00 -6°C° 0,2 mm 1 m/S 573 mmHg 79%
    17:00 -8°C° 0,2 mm 1 m/S 572 mmHg 82%
    18:00 -9°C° 0,2 mm 1 m/S 572 mmHg 86%
    19:00 -10°C° 0,2 mm 1 m/S 572 mmHg 89%
    20:00 -10°C° 0,1 mm 1 m/S 572 mmHg 88%
    21:00 -11°C° 0,1 mm 1 m/S 571 mmHg 87%
    22:00 -12°C° 0,1 mm 1 m/S 571 mmHg 87%
    23:00 -12°C° 0 mm 1 m/S 571 mmHg 85%

    Morgen, 23 Februar, Freitag

    Zeit Temperatur Niederschläge Wind Luftdruck Luftfeuchtigkeit
    00:00 -12°C° 0 mm 1 m/S 571 mmHg 84%
    01:00 -13°C° 0 mm 1 m/S 571 mmHg 83%
    02:00 -13°C° 0 mm 1 m/S 571 mmHg 82%
    03:00 -15°C° 0 mm 2 m/S 570 mmHg 80%
    04:00 -15°C° 0 mm 2 m/S 570 mmHg 79%
    05:00 -12°C° 0 mm 1 m/S 570 mmHg 77%
    06:00 -12°C° 0 mm 1 m/S 571 mmHg 76%
    07:00 -11°C° 0 mm 1 m/S 571 mmHg 74%
    08:00 -10°C° 0,1 mm 1 m/S 572 mmHg 73%
    09:00 -8°C° 0,1 mm 1 m/S 573 mmHg 72%
    10:00 -7°C° 0,1 mm 2 m/S 573 mmHg 71%
    11:00 -6°C° 0,3 mm 1 m/S 574 mmHg 73%
    12:00 -4°C° 0,3 mm 1 m/S 574 mmHg 76%
    13:00 -3°C° 0,3 mm 1 m/S 575 mmHg 78%
    14:00 -3°C° 0,2 mm 1 m/S 574 mmHg 79%
    15:00 -3°C° 0,2 mm 1 m/S 574 mmHg 80%
    16:00 -5°C° 0,2 mm 2 m/S 574 mmHg 81%
    17:00 -6°C° 0,1 mm 2 m/S 574 mmHg 83%
    18:00 -8°C° 0,1 mm 2 m/S 574 mmHg 84%
    19:00 -9°C° 0,1 mm 2 m/S 573 mmHg 85%
    20:00 -9°C° 0,1 mm 2 m/S 573 mmHg 83%
    21:00 -9°C° 0,1 mm 2 m/S 573 mmHg 82%
    22:00 -9°C° 0,1 mm 2 m/S 574 mmHg 80%
    23:00 -9°C° 0,1 mm 2 m/S 574 mmHg 80%

    übermorgen, 24 Februar, Samstag

    Zeit Temperatur Niederschläge Wind Luftdruck Luftfeuchtigkeit
    00:00 -9°C° 0,1 mm 2 m/S 574 mmHg 80%
    01:00 -9°C° 0,1 mm 2 m/S 574 mmHg 80%
    02:00 -9°C° 0 mm 2 m/S 574 mmHg 81%
    03:00 -9°C° 0 mm 2 m/S 574 mmHg 82%
    04:00 -9°C° 0 mm 2 m/S 574 mmHg 83%
    05:00 -9°C° 0 mm 2 m/S 574 mmHg 83%
    06:00 -9°C° 0 mm 2 m/S 574 mmHg 84%
    07:00 -9°C° 0 mm 2 m/S 574 mmHg 84%
    08:00 -7°C° 0 mm 2 m/S 575 mmHg 83%
    09:00 -3°C° 0 mm 1 m/S 576 mmHg 81%
    10:00 -1°C° 0 mm 1 m/S 577 mmHg 80%
    11:00 -1°C° 0 mm 1 m/S 577 mmHg 81%
    12:00 0°C° 0 mm 1 m/S 577 mmHg 83%
    13:00 0°C° 0 mm 1 m/S 577 mmHg 84%
    14:00 0°C° 0 mm 1 m/S 577 mmHg 85%
    15:00 0°C° 0 mm 1 m/S 577 mmHg 87%
    16:00 0°C° 0 mm 1 m/S 577 mmHg 88%
    17:00 -2°C° 0 mm 1 m/S 576 mmHg 90%
    18:00 -3°C° 0 mm 1 m/S 576 mmHg 92%
    19:00 -4°C° 0 mm 1 m/S 575 mmHg 94%
    20:00 -4°C° 0,1 mm 1 m/S 576 mmHg 94%
    21:00 -6°C° 0,1 mm 1 m/S 576 mmHg 94%
    22:00 -6°C° 0,1 mm 1 m/S 576 mmHg 94%
    23:00 -6°C° 0,1 mm 1 m/S 576 mmHg 94%

    25 Februar, Sonntag

    Zeit Temperatur Niederschläge Wind Luftdruck Luftfeuchtigkeit
    00:00 -7°C° 0,1 mm 1 m/S 575 mmHg 94%
    01:00 -7°C° 0,1 mm 1 m/S 575 mmHg 94%
    02:00 -7°C° 0,1 mm 1 m/S 575 mmHg 94%
    03:00 -7°C° 0,1 mm 1 m/S 575 mmHg 94%
    04:00 -8°C° 0,1 mm 1 m/S 575 mmHg 94%
    05:00 -8°C° 0,2 mm 1 m/S 575 mmHg 93%
    06:00 -8°C° 0,2 mm 1 m/S 574 mmHg 93%
    07:00 -8°C° 0,2 mm 1 m/S 574 mmHg 93%
    08:00 -8°C° 0,3 mm 1 m/S 575 mmHg 92%
    09:00 -8°C° 0,3 mm 1 m/S 575 mmHg 90%
    10:00 -8°C° 0,3 mm 2 m/S 575 mmHg 89%
    11:00 -8°C° 0,6 mm 2 m/S 575 mmHg 89%
    12:00 -9°C° 0,6 mm 2 m/S 575 mmHg 89%
    13:00 -9°C° 0,6 mm 2 m/S 575 mmHg 89%
    14:00 -10°C° 0,8 mm 2 m/S 575 mmHg 90%
    15:00 -10°C° 0,8 mm 2 m/S 574 mmHg 91%
    16:00 -12°C° 0,8 mm 2 m/S 574 mmHg 91%
    17:00 -13°C° 0,5 mm 2 m/S 574 mmHg 92%
    18:00 -14°C° 0,5 mm 2 m/S 574 mmHg 93%
    19:00 -15°C° 0,5 mm 2 m/S 573 mmHg 93%
    20:00 -15°C° 0,3 mm 2 m/S 573 mmHg 93%
    21:00 -16°C° 0,3 mm 2 m/S 573 mmHg 92%
    22:00 -15°C° 0,3 mm 1 m/S 573 mmHg 92%
    23:00 -16°C° 0,2 mm 1 m/S 572 mmHg 91%

    26 Februar, Montag

    Zeit Temperatur Niederschläge Wind Luftdruck Luftfeuchtigkeit
    00:00 -16°C° 0,2 mm 1 m/S 572 mmHg 90%
    01:00 -17°C° 0,2 mm 1 m/S 572 mmHg 90%
    02:00 -19°C° 0,1 mm 2 m/S 571 mmHg 89%
    03:00 -20°C° 0,1 mm 2 m/S 571 mmHg 88%
    04:00 -21°C° 0,1 mm 2 m/S 571 mmHg 87%
    05:00 -21°C° 0 mm 2 m/S 570 mmHg 86%
    06:00 -23°C° 0 mm 2 m/S 570 mmHg 86%
    07:00 -24°C° 0 mm 2 m/S 569 mmHg 85%
    08:00 -21°C° 0 mm 2 m/S 570 mmHg 82%
    09:00 -20°C° 0 mm 2 m/S 571 mmHg 79%
    10:00 -21°C° 0 mm 3 m/S 571 mmHg 76%
    11:00 -19°C° 0 mm 3 m/S 571 mmHg 74%
    12:00 -18°C° 0 mm 3 m/S 571 mmHg 73%
    13:00 -17°C° 0 mm 3 m/S 571 mmHg 71%
    14:00 -18°C° 0 mm 3 m/S 571 mmHg 72%
    15:00 -18°C° 0 mm 3 m/S 571 mmHg 73%
    16:00 -18°C° 0 mm 3 m/S 570 mmHg 74%
    17:00 -21°C° 0 mm 3 m/S 570 mmHg 77%
    18:00 -23°C° 0 mm 3 m/S 569 mmHg 80%
    19:00 -24°C° 0 mm 2 m/S 568 mmHg 84%
    20:00 -25°C° 0 mm 2 m/S 568 mmHg 83%
    21:00 -26°C° 0 mm 2 m/S 567 mmHg 83%
    22:00 -26°C° 0 mm 2 m/S 567 mmHg 83%
    23:00 -27°C° 0 mm 2 m/S 566 mmHg 82%

    27 Februar, Dienstag

    Zeit Temperatur Niederschläge Wind Luftdruck Luftfeuchtigkeit
    00:00 -27°C° 0 mm 2 m/S 566 mmHg 82%
    01:00 -28°C° 0 mm 2 m/S 566 mmHg 81%
    02:00 -28°C° 0 mm 2 m/S 565 mmHg 81%
    03:00 -28°C° 0 mm 2 m/S 565 mmHg 80%
    04:00 -28°C° 0 mm 2 m/S 565 mmHg 80%
    05:00 -28°C° 0 mm 2 m/S 565 mmHg 79%
    06:00 -28°C° 0 mm 2 m/S 565 mmHg 79%
    07:00 -28°C° 0 mm 2 m/S 564 mmHg 79%
    08:00 -26°C° 0 mm 2 m/S 566 mmHg 76%
    09:00 -24°C° 0 mm 2 m/S 567 mmHg 73%
    10:00 -20°C° 0 mm 2 m/S 568 mmHg 71%
    11:00 -19°C° 0 mm 2 m/S 568 mmHg 69%
    12:00 -18°C° 0 mm 2 m/S 568 mmHg 68%
    13:00 -17°C° 0 mm 2 m/S 569 mmHg 66%
    14:00 -17°C° 0,1 mm 2 m/S 568 mmHg 68%
    15:00 -17°C° 0,1 mm 2 m/S 568 mmHg 70%
    16:00 -17°C° 0,1 mm 2 m/S 568 mmHg 72%
    17:00 -19°C° 0,1 mm 2 m/S 568 mmHg 76%
    18:00 -21°C° 0,1 mm 2 m/S 567 mmHg 80%
    19:00 -23°C° 0,1 mm 2 m/S 567 mmHg 85%
    20:00 -21°C° 0 mm 1 m/S 567 mmHg 85%
    21:00 -22°C° 0 mm 1 m/S 566 mmHg 85%
    22:00 -22°C° 0 mm 1 m/S 566 mmHg 85%
    23:00 -23°C° 0 mm 1 m/S 566 mmHg 84%
    Mehr zeigen